RH
45 36 31 29 27 26 26 22 19 20 20 20 19 16 15 14 13 12 12 12 12 12 12 11 11 11 11 11 12 12 12 12 11 12 11 11 11 11 10 10 10 10
48 39 33 30 28 28 30 28 24 23 24 26 27 26 24 21 18 17 15 14 14 13 13 13 14 14 14 15 16 16 16 16 16 15 15 14 12 12 11 10 10 10
54 43 37 33 31 31 35 35 32 31 30 31 33 32 32 28 25 24 23 21 20 19 19 18 19 19 20 21 21 22 22 22 21 21 21 20 19 17 16 14 13 12
58 48 41 38 37 36 39 40 40 39 37 36 37 37 38 35 33 31 30 30 29 28 27 27 27 27 28 29 29 29 29 28 27 26 26 25 25 24 23 23 21 20
60 55 48 44 44 43 44 44 43 44 43 40 40 44 45 42 41 40 39 37 36 36 35 35 35 35 35 35 35 35 35 34 34 32 32 31 31 30 30 30 29 28
64 62 55 51 50 49 49 49 46 47 48 46 45 49 52 50 48 47 45 44 43 43 43 42 41 40 39 39 38 38 38 38 37 36 35 35 34 34 34 34 34 34
69 64 60 57 55 54 53 52 50 49 51 52 53 55 56 55 54 53 52 50 49 48 47 46 46 46 45 44 43 42 40 40 39 38 38 37 37 37 36 36 35 36
68 64 63 61 59 59 58 55 55 53 51 53 56 59 59 59 58 58 58 58 57 56 53 52 52 50 48 47 46 45 42 40 39 38 38 38 39 39 39 39 38 37
65 64 66 66 63 63 61 59 60 60 57 54 55 61 65 65 64 62 62 63 63 63 62 62 63 60 56 53 50 49 46 42 39 38 38 38 39 40 41 40 39 38
67 65 68 70 67 65 64 63 65 67 66 63 61 64 68 71 73 69 65 66 66 67 67 66 67 67 65 63 60 58 54 49 46 44 42 42 41 42 43 42 40 39
71 70 71 71 68 67 67 68 70 72 72 70 69 67 68 73 77 76 74 74 74 72 70 68 68 69 68 69 68 67 65 61 57 54 53 51 49 48 47 46 46 44
71 70 69 69 69 70 70 71 75 77 78 78 75 71 69 72 76 78 78 79 79 79 77 73 71 70 69 70 71 70 69 65 61 58 56 54 52 51 49 50 51 50
70 68 68 69 70 71 72 72 74 77 80 81 80 75 71 72 74 76 77 76 77 81 83 80 77 74 71 71 73 72 69 65 61 58 56 55 52 48 46 48 51 53
64 64 67 70 71 73 75 75 75 76 78 80 80 78 75 72 71 72 74 73 73 77 80 81 80 78 74 73 73 72 70 67 63 59 59 58 55 48 44 43 46 50
53 54 56 60 62 65 68 70 72 73 73 73 73 73 74 72 70 70 70 72 73 75 77 78 80 79 77 74 73 73 73 71 68 65 62 60 57 53 50 48 48 50
45 46 47 51 53 56 58 61 63 64 64 64 63 65 68 70 70 70 69 69 69 68 69 72 76 78 78 76 74 73 73 72 70 69 65 61 57 55 54 53 53 52
45 46 48 50 52 54 55 56 57 56 57 60 61 64 69 71 70 69 68 67 64 61 61 64 68 73 76 77 76 74 73 72 70 68 65 62 59 56 57 56 54 53
46 48 49 52 55 55 54 54 55 53 52 53 55 58 61 62 65 67 67 66 63 59 57 58 62 66 68 70 71 70 69 68 66 63 61 59 56 54 55 56 55 56
42 43 44 48 52 53 53 53 56 56 54 51 52 55 55 55 58 62 63 60 57 53 52 54 57 58 57 57 58 58 57 54 52 50 49 49 48 50 54 56 59 62
38 39 41 42 45 46 47 47 49 53 55 55 55 58 60 60 63 66 64 59 55 51 49 49 51 50 49 49 52 55 54 51 50 52 52 51 51 53 56 57 60 62
38 38 39 37 37 38 39 40 40 43 47 50 52 54 56 58 63 67 66 61 56 51 47 46 46 47 46 47 51 55 55 54 55 58 58 56 54 57 63 65 65 64
41 41 40 37 35 34 34 35 35 35 37 38 40 43 46 48 52 57 60 59 56 54 52 50 49 48 47 46 49 52 52 52 53 55 58 59 59 64 71 72 68 62
45 46 45 42 37 35 34 34 33 33 33 32 33 35 38 41 43 46 49 51 52 52 50 47 45 44 43 43 45 48 49 49 48 50 54 56 56 58 60 59 58 55
46 46 46 43 40 37 36 36 36 35 34 33 32 33 35 39 41 42 41 41 42 41 40 39 38 38 39 40 42 44 46 45 44 44 46 47 47 46 46 47 49 49
46 45 44 42 39 37 36 38 40 41 38 36 35 34 36 40 43 43 41 41 40 39 38 38 38 39 39 39 40 43 44 43 42 41 42 43 43 42 41 41 41 41
45 44 42 39 38 37 36 38 40 41 41 39 36 35 37 42 45 44 42 42 42 42 43 43 43 43 43 43 44 46 45 41 39 40 42 41 40 41 41 39 38 43